Location: Homer
(59.6430°N, 151.5480°W)
Time: 09:14:46
(UTC-09:00)

Daily predictions for brighter satellites

Satellite Brightness Start Highest point End
(mag) Time Altitude Azimuth Time Altitude Azimuth Time Altitude Azimuth
Meteor 1-24 Rocket 4.0 17:36:05 10° S 17:42:08 82° ESE 17:48:11 10° NNE
Cosmos 1766 Rocket 4.0 17:39:28 10° SSE 17:43:42 44° E 17:47:55 10° NNE
CORIOLIS 4.2 17:39:43 10° SE 17:45:00 60° ENE 17:50:19 10° NNW
Cosmos 372 Rocket 3.9 17:40:52 10° NNW 17:46:00 72° NE 17:51:06 10° SE
Cosmos 1174 3.4 17:43:13 10° SW 17:46:18 71° SE 17:49:51 10° NE
COSMO-SKYMED 1 4.4 17:45:37 10° ENE 17:47:29 12° E 17:49:21 10° ESE
Cosmos 2208 Rocket 4.1 17:42:40 10° SSW 17:47:57 84° WNW 17:53:20 10° NNE
IDEFIX/ARIANE 42P 2.6 17:43:08 10° SSE 17:48:21 73° ENE 17:53:38 10° NNW
Cosmos 1697 Rocket 3.7 17:43:52 10° W 17:49:10 39° NNW 17:54:30 10° NE
PAYLOAD A 4.3 17:45:49 10° SSE 17:51:14 85° WSW 17:56:33 10° NNW
Cosmos 1763 Rocket 4.2 17:47:18 10° S 17:52:00 36° ESE 17:56:39 10° NE
SJ-7 4.4 17:48:05 10° SE 17:52:01 58° ENE 17:55:58 10° N
Cosmos 1726 2.5 17:49:13 10° N 17:52:51 44° ENE 17:56:30 10° SE
Cosmos 1607 4.2 17:46:45 10° WSW 17:52:52 63° NNW 17:59:06 10° ENE
AQUARIUS 4.2 17:48:45 10° SSE 17:53:13 68° ENE 17:57:44 10° NNW
MTI 4.1 17:50:31 10° NNE 17:53:43 49° ESE 17:56:54 10° S
CZ-2C R/B 4.2 17:50:09 10° NNE 17:54:48 47° E 17:59:25 10° S
Cosmos 1455 3.6 17:52:28 10° NNE 17:55:10 18° ENE 17:57:51 10° ESE
Timation 1 Rocket 4.4 17:49:58 10° NW 17:56:03 82° NE 18:02:06 10° SE
Cosmos 389 Rocket 3.6 17:53:03 10° NNW 17:56:35 50° W 18:00:02 10° S
YAOGAN 1 2.6 17:52:29 10° SSE 17:56:47 64° ENE 18:01:06 10° NNW
Geosat 4.3 17:52:17 10° NE 17:57:18 67° NW 18:02:18 10° SW
Cosmos 1943 Rocket 3.2 17:52:44 10° NW 17:57:29 28° NNE 18:02:15 10° ENE
Cosmos 2084 Rocket 3.2 17:56:17 10° WNW 18:00:04 60° NNE 18:03:51 10° E
Cosmos 1408 Rocket 3.6 17:56:00 10° S 18:00:22 60° E 18:04:44 10° NNE
MSX 3.8 17:56:09 10° SSE 18:01:51 71° ENE 18:07:36 10° NNW
Cosmos 2219 Rocket 3.1 17:57:19 10° SSE 18:02:06 29° ESE 18:06:53 10° NE
Cosmos 1908 3.7 17:58:31 10° NNW 18:02:23 66° W 18:06:16 10° S
Cosmos 1674 3.1 17:58:57 10° SSE 18:02:38 43° E 18:06:20 10° NNE
Cosmos 2151 4.2 18:00:06 10° SE 18:03:16 21° E 18:06:27 10° NE
CZ-4 R/B 1.3 18:00:20 10° SSE 18:04:15 90° W 18:08:15 10° NNW
Cosmos 2278 Rocket 2.7 17:59:50 10° NW 18:05:30 68° WSW 18:11:08 10° SSE
Cosmos 2333 Rocket 3.3 18:01:01 10° SSE 18:05:34 26° ESE 18:10:08 10° NE
SJ-12 4.0 18:01:38 10° SSE 18:05:46 89° WSW 18:09:56 10° NNW
Cosmos 1570 Rocket 4.4 18:00:36 10° SW 18:05:55 65° NW 18:11:15 10° NNE
Cosmos 1378 4.2 18:02:34 10° SW 18:06:11 45° WNW 18:09:48 10° N
MOS 1 4.3 18:00:43 10° SSE 18:06:24 86° ENE 18:12:09 10° NNW
USA 161 3.5 18:05:48 10° N 18:07:50 21° WNW 18:09:45 10° WSW
Cosmos 2322 Rocket 2.6 18:02:23 10° SW 18:08:02 64° NW 18:13:42 10° NE
Cosmos 2228 Rocket 3.3 18:05:20 10° NNW 18:09:46 76° W 18:14:12 10° S
USA 238 DEB 3.9 18:03:04 10° WSW 18:10:07 76° NNW 18:16:56 11° ENE
USA 238 3.9 18:03:10 10° WSW 18:10:13 76° NNW 18:17:02 11° ENE
SJ-6B 3.9 18:07:42 10° ESE 18:11:07 25° NE 18:14:33 10° N
ATLAS 3B R/B 3.0 18:04:47 10° W 18:12:08 67° NNW 18:18:46 12° ENE
Resurs 01 Rocket 2.9 18:08:56 10° E 18:12:12 20° NE 18:15:29 10° N
Lacrosse 5 2.3 18:07:37 10° WSW 18:12:35 57° SSE 18:17:31 10° E
CZ-4C R/B 2.7 18:08:15 10° W 18:14:17 63° N 18:21:00 11° E
Cosmos 1300 2.6 18:11:36 10° N 18:15:27 67° ENE 18:19:16 10° SSE
Cosmos 1328 Rocket 3.9 18:11:27 10° NNW 18:15:53 71° W 18:20:19 10° S
Cosmos 1242 Rocket 4.1 18:15:04 10° NNE 18:17:23 16° NE 18:19:07 12° E
Meteor 2-2 Rocket 4.5 18:12:14 10° NNW 18:17:53 76° WSW 18:23:32 10° S
Cosmos 1151 Rocket 2.9 18:15:06 10° NNW 18:19:25 77° ENE 18:23:43 10° SSE
Blok-2BL 3.2 18:16:14 10° WNW 18:19:36 77° NNE 18:22:59 10° ESE
COSMOS 2455 3.3 18:13:43 10° WSW 18:19:39 54° NNW 18:25:15 12° NE
Meteor 1-21 Rocket 4.3 18:15:22 10° S 18:21:13 71° ESE 18:27:00 10° NNE
USA 215 3.9 18:17:01 10° ESE 18:23:29 58° SSW 18:29:57 10° W
Lacrosse 4 Rocket 1.3 18:21:06 10° NW 18:25:13 69° NE 18:29:16 10° ESE
Cosmos 1076 Rocket 3.8 18:21:29 10° SSW 18:25:45 72° WNW 18:30:05 10° N
Cosmos 1743 Rocket 3.7 18:21:26 10° S 18:25:49 56° E 18:30:14 10° NNE
Cosmos 1515 Rocket 3.9 18:23:25 10° NNW 18:27:55 71° W 18:32:21 10° S
Cosmos 2279 Rocket 4.0 18:21:43 10° N 18:27:55 65° ENE 18:34:07 10° SSE
EO 1 Del DPAF 3.5 18:25:24 10° NNE 18:29:16 74° WNW 18:33:07 10° SSW
Meteor 1-27 4.3 18:24:46 10° NNW 18:30:37 76° ENE 18:36:28 10° SSE
Cosmos 921 Rocket 4.4 18:27:49 10° NNW 18:31:17 22° NE 18:33:19 16° ENE
Cosmos 2242 Rocket 4.4 18:28:17 10° N 18:32:10 29° ENE 18:36:03 10° ESE
CZ-2C R/B 3.0 18:27:55 10° S 18:32:45 60° WSW 18:37:26 10° NNW
NOSS 3-2 (A) 3.7 18:27:03 10° WSW 18:33:30 84° NNW 18:39:41 15° ENE
Cosmos 2369 Rocket 2.6 18:28:14 10° NW 18:33:40 42° NNE 18:38:50 11° ESE
SL-16 R/B 3.8 18:28:43 10° NNE 18:34:28 39° NW 18:40:12 10° WSW
SL-14 R/B 3.9 18:31:18 10° SSE 18:34:55 34° E 18:38:36 10° NNE
Cosmos 332 Rocket 4.0 18:30:40 10° S 18:35:22 51° ESE 18:39:48 12° NE
Cosmos 1340 Rocket 3.9 18:33:40 10° SE 18:36:47 23° E 18:38:37 17° NE
Cosmos 1484 Rocket 2.8 18:33:40 10° SSE 18:37:39 81° ENE 18:41:43 10° NNW
Cosmos 2346 Rocket 4.5 18:32:02 10° S 18:38:12 65° E 18:44:20 10° NNE
Cosmos 2237 Rocket 2.9 18:34:00 10° S 18:38:58 33° ESE 18:42:52 15° NE
Cosmos 1814 Rocket 4.1 18:33:47 10° SSW 18:39:10 89° ESE 18:44:35 10° NNE
Cosmos 44 4.5 18:35:33 10° S 18:39:48 26° ESE 18:42:23 17° E
NOSS 3-2 (C) 3.7 18:33:52 10° WSW 18:40:19 87° NNW 18:46:15 16° ENE
Meteor 1-28 Rocket 4.5 18:39:40 19° ENE 18:40:32 20° E 18:43:22 10° SE
Cosmos 1869 4.1 18:38:21 10° N 18:41:58 30° ENE 18:45:35 10° SE
Cosmos 2056 Rocket 4.4 18:38:14 10° NNW 18:42:45 29° NE 18:45:42 18° E
Cosmos 839 Rocket 4.5 18:36:30 10° WNW 18:43:40 53° N 18:48:27 17° E
Cosmos 2084 4.4 18:42:55 10° S 18:46:08 26° SE 18:47:42 20° E
COSMOS 2428 2.7 18:41:06 10° SSW 18:46:48 74° SE 18:51:53 13° NE
SL-16 R/B 3.4 18:43:05 10° SSE 18:47:09 21° ESE 18:48:50 18° E
ALOS 2.9 18:43:00 10° ESE 18:47:12 34° ENE 18:51:26 10° N
Meteor 2-10 4.0 18:44:19 10° NNW 18:49:25 85° WSW 18:54:36 10° SSE
Cosmos 841 Rocket 3.5 18:44:14 10° SSW 18:49:29 71° ESE 18:54:24 12° NE
Cosmos 2297 4.2 18:43:54 10° NW 18:49:33 65° WSW 18:55:12 10° SSE
Thor Agena Rocket 3.7 18:44:35 10° NNE 18:49:49 57° ESE 18:54:57 10° S
Cosmos 1500 Rocket 3.5 18:46:51 10° S 18:51:11 69° E 18:55:35 10° NNE
Cosmos 2237 4.2 18:45:43 10° SW 18:51:28 87° SE 18:56:34 14° NE
Cosmos 2058 3.3 18:47:44 10° SSE 18:51:33 39° E 18:55:09 11° NNE
Spot 2 Rocket 3.9 18:48:00 10° SE 18:52:40 39° ENE 18:57:21 10° N
Cosmos 2180 Rocket 4.4 18:49:04 10° NNW 18:55:16 80° ENE 19:01:29 10° SSE
CENTAUR R/B 2.8 18:49:26 10° SW 18:55:50 66° SE 19:01:16 19° ENE
Sich 1 4.1 18:55:46 10° SE 18:59:23 25° E 19:00:04 24° ENE
Cosmos 468 Rocket 4.4 18:55:20 10° SW 19:00:27 61° NW 19:05:23 11° NNE
Cosmos 371 Rocket 3.3 18:58:51 10° SSW 19:03:36 64° ESE 19:07:12 17° NE
GEOS 3 Rocket 3.8 19:00:50 20° NE 19:04:30 70° NNW 19:09:42 10° WSW
H-2A R/B 3.5 19:06:48 29° ENE 19:06:54 29° ENE 19:10:12 10° N
Meteor 2-10 Rocket 4.4 19:02:46 10° N 19:06:58 25° NE 19:07:44 24° ENE
Cosmos 1371 Rocket 4.4 19:02:31 10° NNW 19:07:29 42° NE 19:10:20 23° ESE
Envisat 4.1 19:07:04 22° ENE 19:07:38 23° NE 19:11:32 10° N
ERS-1 Rocket 4.3 19:08:04 19° NE 19:08:12 20° NE 19:11:43 10° N
Cosmos 1633 Rocket 4.0 19:04:49 10° SE 19:08:14 26° E 19:08:14 26° E
Cosmos 2322 4.1 19:03:31 10° SW 19:09:11 62° NW 19:13:57 15° NE
FREGAT/IRIS 2.7 19:06:35 10° SSE 19:09:35 55° ENE 19:12:38 10° N
SL-16 R/B 3.2 19:06:12 10° W 19:11:31 39° NNW 19:15:54 15° NE
Cosmos 1356 Rocket 4.2 19:08:48 10° SSE 19:11:47 28° ESE 19:11:47 28° ESE
Aureole 2 Rocket 3.3 19:09:37 10° S 19:13:20 39° ESE 19:14:26 32° ENE
Cosmos 1933 4.3 19:10:57 10° N 19:14:05 28° NE 19:14:05 28° NE
Cosmos 1867 3.5 19:09:09 10° WNW 19:14:40 73° NNE 19:18:11 23° ESE
CZ-3A R/B 4.4 19:09:44 10° W 19:15:05 33° SW 19:19:20 10° SSE
FENGYUN 3A 3.7 19:13:06 10° SE 19:18:22 58° ENE 19:23:40 10° NNW
NOSS 0 Rocket 4.0 19:12:34 10° SSW 19:18:41 60° ESE 19:22:46 22° NE
USA 116 3.6 19:16:59 12° NNE 19:19:55 64° WNW 19:23:02 10° SSW
Cosmos 1862 Rocket 3.9 19:16:12 10° N 19:20:26 42° ENE 19:22:31 25° ESE
METEOR-M 4.1 19:15:21 10° SSE 19:20:43 89° ENE 19:26:08 10° NNW
Cosmos 2360 Rocket 2.8 19:16:06 10° WSW 19:21:36 52° NW 19:25:55 17° NE
Cosmos 1626 2.8 19:19:32 10° SSE 19:22:25 34° ESE 19:22:25 34° ESE
Cosmos 1980 Rocket 3.6 19:18:31 10° WNW 19:23:19 28° NNW 19:26:35 17° NE
Cosmos 1707 Rocket 3.6 19:19:02 10° NNW 19:23:24 79° WSW 19:27:44 10° S
Cosmos 2333 4.2 19:18:12 10° SW 19:23:50 82° NW 19:27:54 20° NE
Helios 1A 3.4 19:23:35 35° E 19:24:23 39° ENE 19:28:20 10° N
COSMO-SKYMED 1 2.5 19:20:44 13° NNE 19:24:35 62° ESE 19:28:53 10° S
ATLAS 5 CENTAUR R/B 2.2 19:19:44 10° WNW 19:25:14 74° NNE 19:28:30 28° ESE
Cosmos 44 Rocket 3.4 19:20:38 10° SW 19:25:38 60° SE 19:27:43 33° ENE
Cosmos 972 Rocket 4.1 19:22:14 10° NNW 19:27:12 56° NE 19:30:43 21° SE
Cosmos 1980 3.7 19:21:41 10° SSW 19:27:18 64° ESE 19:30:38 25° NE
Cosmos 1452 Rocket 4.4 19:22:40 10° NNW 19:27:23 31° NE 19:28:23 29° NE
Cosmos 1726 4.4 19:24:50 10° NNW 19:28:04 27° W 19:31:17 10° SSW
Cosmos 1328 4.1 19:24:58 10° SSW 19:28:54 67° WNW 19:32:53 10° N
H-2A R/B 4.1 19:29:47 12° NNE 19:29:47 12° NNE 19:31:08 10° N
Cosmos 836 Rocket 4.5 19:24:28 10° SSW 19:29:45 88° ESE 19:33:38 19° NNE
CZ-2D R/B 3.9 19:30:47 36° NE 19:30:47 36° NE 19:33:48 10° N
Cosmos 1455 2.2 19:27:35 10° NNW 19:31:24 80° WSW 19:35:13 10° S
NOAA 12 4.3 19:27:10 10° SSE 19:32:26 74° WSW 19:37:45 10° NNW
Cosmos 1763 Rocket 3.9 19:28:31 10° SW 19:33:39 60° NW 19:37:39 16° NNE
Meteor 1-11 4.2 19:28:22 10° S 19:34:07 81° ESE 19:39:57 10° NNE
Cosmos 1697 Rocket 4.1 19:29:50 10° WNW 19:34:36 26° N 19:37:07 20° NE
SL-19 R/B 4.2 19:29:39 10° SSE 19:35:22 88° ENE 19:40:59 10° NNW
Cosmos 304 Rocket 3.9 19:34:53 10° S 19:39:31 49° ESE 19:40:30 42° ENE
Cosmos 2084 Rocket 3.6 19:35:52 10° WNW 19:39:36 57° SW 19:41:08 32° SSE
Cosmos 2151 3.2 19:36:00 10° SSW 19:40:11 69° WNW 19:44:25 10° N
Cosmos 1607 4.3 19:34:51 10° WNW 19:40:56 54° N 19:43:32 33° ENE
Cosmos 540 Rocket 3.4 19:36:32 10° SSW 19:41:43 82° ESE 19:44:42 26° NE
Cosmos 1943 Rocket 2.3 19:36:56 10° NW 19:42:23 53° NE 19:44:06 39° E
Cosmos 1666 Rocket 3.6 19:39:24 10° S 19:43:40 55° E 19:44:36 45° NE
Cosmos 1703 3.1 19:40:58 10° S 19:44:52 72° E 19:45:48 48° NNE
SJ-6B 3.3 19:41:24 10° S 19:45:30 66° WSW 19:49:41 10° NNW
Cosmos 2219 Rocket 2.2 19:39:56 10° SW 19:45:36 82° NW 19:48:56 26° NE
Cosmos 2263 4.1 19:41:43 10° NW 19:47:21 68° NE 19:49:40 36° ESE
Resurs 01 Rocket 1.5 19:43:41 10° SSE 19:48:09 83° ENE 19:52:37 10° NNW
Cosmos 2333 Rocket 2.1 19:43:33 10° SW 19:49:14 89° SE 19:52:18 29° NE
FengYun 1-2 T 4.2 19:44:18 10° SSE 19:49:51 89° WSW 19:55:25 10° NNW
Resurs 1-3 3.4 19:47:21 22° SSE 19:50:11 75° ENE 19:54:36 10° NNW
Cosmos 1242 Rocket 2.4 19:49:24 10° NNW 19:52:56 82° WSW 19:53:23 64° S
Cosmos 2322 Rocket 3.5 19:48:05 10° W 19:53:06 31° NNW 19:56:02 20° NNE
SAR-Lupe-4 3.5 19:54:50 76° N 19:54:50 76° N 19:58:13 10° NNW
Lacrosse 5 2.0 19:50:18 10° W 19:55:20 65° S 19:56:44 45° SE
SAR-Lupe-1 4.4 19:56:09 53° N 19:56:09 53° N 19:59:02 10° NNW
Cosmos 1417 Rocket 4.4 19:50:59 10° N 19:57:09 59° ENE 20:00:39 26° SE
USA 238 DEB 3.8 19:54:42 10° WNW 20:01:44 66° N 20:04:23 40° ENE
USA 238 3.9 19:54:48 10° WNW 20:01:50 66° N 20:04:29 40° ENE
CZ-4C R/B 2.6 19:57:02 10° WNW 20:03:28 79° NNE 20:06:13 41° ESE
ATLAS 3B R/B 2.8 19:56:23 10° WNW 20:03:37 68° NNE 20:06:01 42° E
Lacrosse 4 Rocket 3.3 20:00:08 10° WNW 20:03:40 28° WSW 20:07:10 10° S
HJ-1C 3.9 20:03:29 41° SSW 20:04:26 61° WSW 20:07:53 10° NNW
COSMOS 2455 3.6 20:00:55 10° WNW 20:06:39 42° N 20:08:24 34° NE
Spot 1 4.0 20:05:06 37° SSE 20:06:52 89° ENE 20:11:13 10° NNW
Cosmos 921 Rocket 2.9 20:05:52 10° NNW 20:10:09 74° NNE 20:10:09 74° NNE
Cosmos 2242 Rocket 4.2 20:06:21 10° NNW 20:10:41 56° W 20:15:01 10° S
SKYMED 2 4.1 20:09:22 16° N 20:12:42 58° WNW 20:16:58 10° SW
Cosmos 1656 Rocket 3.9 20:07:18 10° NW 20:12:51 49° NE 20:13:14 48° NE
Cosmos 1340 Rocket 3.3 20:09:07 10° SSW 20:13:00 56° WNW 20:14:18 36° N
Meteor 1-28 Rocket 3.6 20:14:40 58° NW 20:15:00 62° WNW 20:18:41 10° SSW
Cosmos 2369 Rocket 2.3 20:12:27 10° NW 20:18:09 73° SW 20:20:40 34° SSE
Cosmos 1869 4.3 20:14:34 10° NNW 20:18:28 46° W 20:22:21 10° SSW
Cosmos 44 3.1 20:15:28 10° SW 20:20:36 83° SE 20:20:49 80° E
Cosmos 1805 Rocket 4.1 20:17:40 10° SSW 20:22:06 60° WNW 20:24:49 23° N
Cosmos 2237 Rocket 2.3 20:17:02 10° SW 20:22:42 75° NW 20:24:43 41° NNE
ALOS 3.0 20:19:57 10° S 20:24:32 54° W 20:29:09 10° NNW
NOSS 3-2 (A) 3.9 20:18:19 10° W 20:24:59 65° N 20:27:05 46° ENE
Cosmos 2084 4.0 20:21:29 10° WSW 20:24:18 48° WSW 20:24:18 48° WSW
Cosmos 2056 Rocket 3.3 20:20:23 10° NNW 20:25:34 88° ENE 20:26:05 73° SE
Cosmos 2058 4.4 20:24:46 10° SW 20:28:34 35° WNW 20:31:26 16° N
Cosmos 1624 Rocket 4.0 20:24:57 10° NNW 20:30:20 84° WSW 20:31:10 64° SSE
SL-16 R/B 2.0 20:24:49 10° SSW 20:30:28 75° SE 20:30:45 73° E
S3M 3.9 20:24:38 10° NNW 20:31:04 74° ENE 20:32:40 52° SE
COSMOS 2428 3.7 20:26:06 10° WSW 20:31:32 42° NNW 20:33:55 28° NNE
Spot 2 Rocket 4.2 20:26:39 10° S 20:31:35 52° WSW 20:36:32 10° NNW
Meteor 1-26 Rocket 4.1 20:25:57 10° NNW 20:31:46 85° ENE 20:32:58 58° SSE
NOSS 3-2 (C) 3.9 20:25:08 10° W 20:31:48 65° N 20:33:42 48° ENE
DNEPR-1 R/B 3.9 20:26:30 10° WSW 20:32:31 84° NNW 20:32:57 75° NE
Sich 1 3.5 20:32:21 10° SSW 20:36:46 62° WNW 20:37:09 59° NW
H-2A R/B 4.1 20:42:00 37° WNW 20:42:00 37° WNW 20:44:45 10° NNW
Cosmos 972 4.4 20:37:13 10° NNW 20:41:53 79° NW 20:41:53 79° NW
GEOS 3 Rocket 4.1 20:41:56 48° N 20:42:17 49° N 20:47:16 10° WNW
Nadezhda 4 Rocket 4.2 20:37:10 10° SSW 20:43:28 69° WNW 20:49:49 10° NNE
Cosmos 839 Rocket 3.9 20:37:29 10° NW 20:44:20 88° NE 20:45:04 72° ESE
Cosmos 1633 Rocket 3.7 20:41:40 10° SSW 20:45:25 52° WSW 20:45:25 52° WSW
Envisat 3.4 20:47:16 53° N 20:47:16 53° N 20:51:10 10° NNW
ERS-1 Rocket 3.9 20:48:04 38° N 20:48:04 38° N 20:51:14 10° NNW
CENTAUR R/B 2.9 20:39:55 10° W 20:46:40 72° NNW 20:48:28 53° NE
Cosmos 1538 Rocket 4.0 20:43:07 10° SSW 20:48:13 80° WSW 20:48:13 80° WSW
Aureole 2 Rocket 4.0 20:44:57 10° WSW 20:48:19 42° WNW 20:48:19 42° WNW
Meteor 2-10 Rocket 3.7 20:44:36 10° NNW 20:48:55 64° NNW 20:48:55 64° NNW
Cosmos 1371 Rocket 4.5 20:44:46 10° NW 20:49:53 56° WSW 20:50:43 50° SSW
USA 229 DEB 4.4 20:47:37 10° SSW 20:52:13 38° S 20:52:13 38° S
USA 229 4.4 20:47:44 10° SSW 20:52:16 38° S 20:52:16 38° S
SL-16 R/B 3.6 20:52:20 10° WNW 20:57:06 27° N 20:57:46 26° N
Cosmos 1867 4.4 20:52:56 10° WNW 20:58:09 44° SW 20:58:53 42° SSW
Cosmos 1626 4.3 20:55:04 10° SW 20:57:10 25° WSW 20:57:10 25° WSW
Cosmos 1553 Rocket 4.0 20:53:23 10° NNW 20:59:33 78° W 21:00:53 57° S
Helios 1A 4.3 21:00:13 39° W 21:00:13 39° W 21:04:01 10° NNW
COSMO-SKYMED 1 4.5 20:57:57 16° N 21:00:30 28° NW 21:04:12 10° WSW
Cosmos 1092 Rocket 4.3 20:58:46 10° SSW 21:05:06 67° WNW 21:11:27 10° N
NOSS 0 Rocket 4.5 20:59:14 10° WSW 21:05:21 54° NW 21:06:47 44° N
Cosmos 2360 Rocket 3.6 21:01:59 10° WNW 21:06:48 28° NNW 21:07:42 27° N
H-2A R/B 4.1 21:10:25 18° N 21:10:25 18° N 21:11:51 10° N
Cosmos 44 Rocket 4.1 21:02:19 10° WSW 21:06:27 50° WNW 21:06:27 50° WNW
Terra 4.3 21:12:06 12° N 21:12:06 12° N 21:12:29 10° N
Cosmos 1980 Rocket 3.6 21:04:07 10° NW 21:08:21 28° N 21:08:21 28° N
ATLAS 5 CENTAUR R/B 2.7 21:04:26 10° WNW 21:09:59 54° SW 21:10:05 54° SW
Cosmos 1452 Rocket 4.2 21:04:51 10° NNW 21:08:43 49° NNW 21:08:43 49° NNW
Cosmos 1980 4.5 21:06:13 10° WSW 21:11:42 46° NW 21:12:30 43° N
Aureole 1 Rocket 4.2 21:08:34 10° SW 21:14:57 85° WNW 21:16:44 57° NNE
Cosmos 1697 Rocket 4.0 21:15:01 10° NW 21:18:51 30° N 21:18:51 30° N
Resurs 01 Rocket 4.1 21:21:54 10° SW 21:25:12 20° W 21:28:31 10° NW
Cosmos 1943 Rocket 2.9 21:20:51 10° NW 21:25:39 49° W 21:25:39 49° W
Cosmos 1607 4.3 21:22:31 10° WNW 21:27:40 62° NW 21:27:40 62° NW
Cosmos 2219 Rocket 3.4 21:25:09 10° W 21:30:18 35° NNW 21:30:40 34° NNW
Cosmos 2333 Rocket 3.3 21:28:53 10° W 21:34:08 37° NNW 21:34:19 37° NNW
Lacrosse 5 3.6 21:33:11 10° W 21:35:57 28° WSW 21:35:57 28° WSW
Cosmos 2322 Rocket 3.8 21:33:59 10° NW 21:37:51 26° N 21:37:51 26° N
CZ-4C R/B 3.2 21:45:32 10° WNW 21:51:25 53° WSW 21:51:25 53° WSW
USA 238 DEB 4.0 21:46:03 10° WNW 21:51:50 63° WNW 21:51:50 63° WNW
USA 238 4.0 21:46:09 10° WNW 21:51:56 63° WNW 21:51:56 63° WNW
COSMOS 2455 3.9 21:47:35 10° NW 21:51:33 39° NNW 21:51:33 39° NNW
ATLAS 3B R/B 3.1 21:47:30 10° WNW 21:53:17 58° W 21:53:17 58° W
Cosmos 2369 Rocket 4.3 21:57:19 10° WNW 22:01:20 20° WSW 22:02:31 19° WSW
Cosmos 2237 Rocket 3.8 22:02:31 10° W 22:06:34 31° NW 22:06:34 31° NW
SL-16 R/B 3.9 22:09:41 10° WSW 22:12:41 28° W 22:12:41 28° W
NOSS 3-2 (A) 4.4 22:09:28 10° WNW 22:14:29 52° WNW 22:14:29 52° WNW
CENTAUR R/B 3.7 22:31:02 10° WNW 22:35:39 44° WNW 22:35:39 44° WNW
SL-16 R/B 4.4 22:37:37 10° NW 22:39:38 20° NNW 22:39:38 20° NNW
